TimeMST,TemperatureF,Dew PointF,Humidity,Sea Level PressureIn,VisibilityMPH,Wind Direction,Wind SpeedMPH,Gust SpeedMPH,PrecipitationIn,Events,Conditions,WindDirDegrees,DateUTC
9:45 AM,19.4,-9999,N/A,29.88,10.0,Calm,Calm,-,N/A,,Overcast,0,2012-12-13 16:45:00
10:05 AM,19.4,-9999,N/A,29.89,10.0,Calm,Calm,-,N/A,,Overcast,0,2012-12-13 17:05:00
10:25 AM,21.2,-9999,N/A,29.89,10.0,Calm,Calm,-,N/A,,Overcast,0,2012-12-13 17:25:00
10:45 AM,23.0,-9999,N/A,29.89,8.0,SSW,3.5,-,N/A,,Overcast,200,2012-12-13 17:45:00
11:05 AM,23.0,-9999,N/A,29.88,10.0,Calm,Calm,-,N/A,Snow,Light Snow,0,2012-12-13 18:05:00
11:25 AM,23.0,-9999,N/A,29.87,9.0,Calm,Calm,-,N/A,Rain,Freezing Rain,0,2012-12-13 18:25:00
11:45 AM,24.8,-9999,N/A,29.87,5.0,Calm,Calm,-,N/A,Rain,Freezing Rain,0,2012-12-13 18:45:00
12:05 PM,24.8,-9999,N/A,29.86,5.0,NNE,4.6,-,N/A,Rain,Freezing Rain,30,2012-12-13 19:05:00
12:25 PM,24.8,-9999,N/A,29.86,4.0,NE,4.6,-,N/A,Snow,Light Snow,40,2012-12-13 19:25:00
12:45 PM,24.8,-9999,N/A,29.85,8.0,Calm,Calm,-,N/A,Rain,Freezing Rain,0,2012-12-13 19:45:00
1:05 PM,26.6,-9999,N/A,29.85,10.0,Calm,Calm,-,N/A,Rain,Freezing Rain,0,2012-12-13 20:05:00
1:25 PM,28.4,-9999,N/A,29.84,10.0,SW,5.8,-,N/A,Rain,Freezing Rain,220,2012-12-13 20:25:00
1:45 PM,28.4,-9999,N/A,29.84,2.5,SSW,5.8,-,N/A,Snow,Light Snow,210,2012-12-13 20:45:00
2:05 PM,28.4,-9999,N/A,29.83,3.0,SSW,5.8,-,N/A,Snow,Light Snow,200,2012-12-13 21:05:00
2:25 PM,28.4,-9999,N/A,29.83,5.0,SSW,6.9,-,N/A,Rain,Freezing Rain,200,2012-12-13 21:25:00
2:45 PM,28.4,-9999,N/A,29.83,8.0,WSW,5.8,-,N/A,Rain,Freezing Rain,250,2012-12-13 21:45:00
3:05 PM,28.4,-9999,N/A,29.83,5.0,SW,4.6,-,N/A,Rain,Freezing Rain,230,2012-12-13 22:05:00
3:25 PM,28.4,-9999,N/A,29.83,5.0,Calm,Calm,-,N/A,Rain,Freezing Rain,0,2012-12-13 22:25:00
6:05 PM,28.4,-9999,N/A,29.82,7.0,Calm,Calm,-,N/A,Rain,Freezing Rain,0,2012-12-14 01:05:00
6:25 PM,28.4,-9999,N/A,29.82,9.0,Calm,Calm,-,N/A,Rain,Freezing Rain,0,2012-12-14 01:25:00
6:45 PM,26.6,-9999,N/A,29.81,10.0,Calm,Calm,-,N/A,Rain,Freezing Rain,0,2012-12-14 01:45:00
7:05 PM,26.6,-9999,N/A,29.81,9.0,Calm,Calm,-,N/A,Rain,Freezing Rain,0,2012-12-14 02:05:00
7:25 PM,26.6,-9999,N/A,29.81,10.0,Calm,Calm,-,N/A,Rain,Freezing Rain,0,2012-12-14 02:25:00
7:45 PM,26.6,-9999,N/A,29.81,3.0,Calm,Calm,-,N/A,,Overcast,0,2012-12-14 02:45:00
8:05 PM,26.6,-9999,N/A,29.81,2.0,East,4.6,-,N/A,Snow,Light Snow,90,2012-12-14 03:05:00
8:25 PM,26.6,-9999,N/A,29.81,1.8,Calm,Calm,-,N/A,Snow,Light Snow,0,2012-12-14 03:25:00
8:45 PM,26.6,-9999,N/A,29.80,7.0,East,4.6,-,N/A,Rain,Freezing Rain,80,2012-12-14 03:45:00
9:05 PM,28.4,-9999,N/A,29.80,4.0,SW,5.8,-,N/A,Snow,Light Snow,230,2012-12-14 04:05:00
9:25 PM,28.4,-9999,N/A,29.80,4.0,SSW,4.6,-,N/A,Snow,Light Snow,210,2012-12-14 04:25:00
9:45 PM,26.6,-9999,N/A,29.80,8.0,NE,4.6,-,N/A,Rain,Freezing Rain,50,2012-12-14 04:45:00
10:05 PM,26.6,-9999,N/A,29.80,10.0,NE,3.5,-,N/A,Rain,Freezing Rain,40,2012-12-14 05:05:00
10:25 PM,26.6,-9999,N/A,29.80,10.0,Calm,Calm,-,N/A,Rain,Freezing Rain,0,2012-12-14 05:25:00
10:45 PM,26.6,-9999,N/A,29.80,10.0,Calm,Calm,-,N/A,Rain,Freezing Rain,0,2012-12-14 05:45:00
11:05 PM,26.6,-9999,N/A,29.79,10.0,Calm,Calm,-,N/A,Rain,Freezing Rain,0,2012-12-14 06:05:00
11:25 PM,26.6,-9999,N/A,29.79,10.0,NE,3.5,-,N/A,Rain,Freezing Rain,40,2012-12-14 06:25:00
11:45 PM,26.6,-9999,N/A,29.79,7.0,Calm,Calm,-,N/A,Rain,Freezing Rain,0,2012-12-14 06:45:00